Regional Weather Roundup
Issued by NWS Boston, MA

Home | Current Version | Previous Version | Text Only | Print | Product List | Glossary On
Versions: 1 2 3 4 5 6 7 8 9 10 11 12 13 14 15 16 17 18 19 20 21 22 23 24 25 26 27 28 29 30 31 32 33 34 35 36 37 38 39 40 41 42 43 44 45 46 47 48 49
000
ASUS41 KBOX 221910
RWRBOX

REGIONAL WEATHER ROUNDUP
NATIONAL WEATHER SERVICE TAUNTON MA
200 PM EST MON DEC 22 2014

NOTE:  "FAIR" INDICATES FEW OR NO CLOUDS BELOW 12,000 FEET WITH NO
SIGNIFICANT WEATHER AND/OR OBSTRUCTIONS TO VISIBILITY.  THE FOLLOWING
OBSERVATION LOCATIONS DO NOT REPORT PRESENT WEATHER...PROVINCETOWN...
SMITHFIELD...BLOCK ISLAND...KEENE...AND OXFORD.

MAZALL-222000-
EASTERN MASSACHUSETTS

CITY           SKY/WX    TMP DP  RH WIND       PRES   REMARKS
BOSTON         PTSUNNY   43  37  79 NE9       30.33F
BEVERLY        CLOUDY    41  37  86 N7        30.33F
LAWRENCE       CLOUDY    40  35  83 NE7       30.36F
BEDFORD        CLOUDY    40  35  83 N7        30.32F
BLUE HILL        N/A     40  38  93 NE8       30.28F
NORWOOD        CLOUDY    43  38  82 N5        30.31F
MARSHFIELD     PTSUNNY   45  39  81 E6        30.33F
PLYMOUTH       LGT RAIN  43  41  93 E5        30.31F
TAUNTON        LGT RAIN  45  41  86 NE5       30.30F
NEW BEDFORD    PTSUNNY   46  39  76 NE9       30.29F
$$

MAZALL-222000-
CAPE COD AND THE ISLANDS

CITY           SKY/WX    TMP DP  RH WIND       PRES   REMARKS
FALMOUTH       CLOUDY    46  37  71 E10       30.30F
HYANNIS        CLOUDY    46  38  73 E8        30.29F
CHATHAM        CLOUDY    45  38  76 E9        30.33R
PROVINCETOWN   PTSUNNY   45  39  81 E10       30.33F
NANTUCKET      PTSUNNY   48  38  68 E15       30.30F
MARTHAS VNYRD  CLOUDY    45  38  76 E12       30.29F
$$

MAZALL-222000-
CENTRAL AND WESTERN MASSACHUSETTS

CITY           SKY/WX    TMP DP  RH WIND       PRES   REMARKS
WORCESTER      CLOUDY    36  31  82 NE6       30.28F WCI  31
FITCHBURG      CLOUDY    39  30  70 NE5       30.33F
ORANGE         CLOUDY    39  32  76 E5        30.30F
SPRINGFIELD    NOT AVBL
WESTFIELD      CLOUDY    39  33  79 N8        30.28F
NORTH ADAMS    CLOUDY    37  30  75 E12       30.27F WCI  29
PITTSFIELD     CLOUDY    36  31  82 E5        30.22F
$$

RIZALL-222000-
RHODE ISLAND

CITY           SKY/WX    TMP DP  RH WIND       PRES   REMARKS
PROVIDENCE     PTSUNNY   43  37  79 NE7       30.30F
NEWPORT        LGT RAIN  43  38  82 E9        30.29F
BLOCK ISLAND   CLOUDY    45  37  76 E9        30.27S
SMITHFIELD     CLOUDY    41  30  65 N8        30.29F
WESTERLY       CLOUDY    45  37  73 NE8       30.28F
$$

CTZALL-222000-
CONNECTICUT

CITY           SKY/WX    TMP DP  RH WIND       PRES   REMARKS
BRADLEY INTL   PTSUNNY   41  33  73 N6        30.27F
HARTFORD       CLOUDY    41  33  73 NW8       30.28F
BRIDGEPORT     CLOUDY    43  37  79 E10       30.26F
DANBURY        CLOUDY    42  34  73 E7        30.25F
GROTON         CLOUDY    46  37  71 E10       30.26F
NEW HAVEN      CLOUDY    46  36  68 N7        30.26F
CHESTER        CLOUDY    45  36  70 E9        30.25F
MERIDEN        CLOUDY    41  34  76 NE8       30.27F
WILLIMANTIC    MOSUNNY   45  34  65 E8        30.28F
OXFORD         CLOUDY    39  30  70 E6        30.25F
$$

MEZ002-015-021-024-NHZ003-005-008-011-012-014-VTZ005-008-222000-
NORTHERN NEW ENGLAND

CITY           SKY/WX    TMP DP  RH WIND       PRES   REMARKS
PORTLAND ME    CLOUDY    40  32  73 NE6       30.38R
BANGOR ME      PTSUNNY   35  27  72 CALM      30.40S
CONCORD NH     CLOUDY    37  28  70 CALM      30.35F
MANCHESTER NH  FLURRIES  37  32  82 CALM      30.33F
NASHUA NH      LGT RAIN  38  32  79 CALM      30.35F
PORTSMOUTH NH  NOT AVBL
JAFFREY NH     CLOUDY    35  29  78 CALM      30.30F
KEENE NH       CLOUDY    37  32  81 CALM      30.31F
BURLINGTON VT  CLOUDY    27  21  78 NW5       30.31F FOG     WCI  22
MT. WASHINGTON CLOUDY    19  10  68 SW14        N/A  WCI   6
$$

NYZ052-076-222000-
EASTERN NEW YORK

CITY           SKY/WX    TMP DP  RH WIND       PRES   REMARKS
ALBANY         FLURRIES  34  26  72 CALM      30.28F
NEW YORK CITY  CLOUDY    41  37  86 NE15      30.23F
$$

ANZALL-222000-
MARINE OBSERVATIONS

STATION/POSITION TIME  TEMP    WIND        PRES    VSBY  WAVE
                       AIR SEA DIR/SP/G                  HT/PER
                 (UTC) (F)     (DEG/KT/KT) (MB)    (MI)  (FT/S)
BOSTON BUOY      1850   43 46   50/  6/  6 1027.4R         3/ 8
BUZZARDS BAY     1800           30/  9/ 10 1027.4R
NANTUCKET SOUND  1850   45 44   90/ 12/ 14 1025.9F         2/ 7
MASS BAY-STELLWA 1804   43 44   70/  8/  8   N/A    1 7/8  3/ 6
ISLE OF SHOALS   1900   39      20/ 14/ 16 1026.9S
S OF BLOCK IS    1808      51                N/A           3/ 8
$$

......................KEY.........................
  SKY/WX - SKY CONDITION/PRESENT WEATHER
  TMP    - TEMPERATURE IN FAHRENHEIT
  DWPT   - DEWPOINT IN FAHRENHEIT
  RH     - RELATIVE HUMIDITY IN PERCENT
  WIND   - DIRECTION AND SPEED IN MPH
  PRES   - MEAN SEA LEVEL PRESSURE IN INCHES OF HG
  WCI    - WIND CHILL INDEX
  VSB    - VISIBILITY IN MILES
  HX     - HEAT INDEX
  TC     - TEMPERATURE IN CELSIUS
  VRB    - VARIABLE WIND DIRECTION
  N/A    - NOT AVAILABLE



USA.gov is the U.S. government's official web portal to all federal, state and local government web resources and services.